Wetbulb
55.62 55.69 57.58 58.55 59.41 59.20 60.54 60.45 59.73 59.57 59.75 60.06 59.67 59.09 58.72 58.34 57.67 59.64 56.23 59.86 59.85 61.49 60.22 59.16 58.04 59.05 59.38 56.06 56.00 56.31 50.04 47.57 48.47 48.64 49.66 53.96 53.96 56.59 58.28 56.94 57.37 58.62 58.87 62.02 67.37
54.07 54.66 56.07 58.54 58.26 58.38 58.54 59.39 59.61 59.57 59.34 59.31 59.28 58.65 58.16 58.02 57.77 55.90 60.92 61.45 61.85 62.92 58.34 56.90 54.93 56.55 56.52 55.39 54.00 51.72 49.08 49.00 51.46 52.18 50.92 53.08 54.38 55.55 55.55 55.73 56.40 57.50 60.34 63.96 65.59
53.31 53.87 54.51 56.99 57.79 58.06 58.28 57.57 58.37 59.59 59.51 59.04 59.03 58.45 57.71 58.25 54.23 53.86 62.11 63.54 63.16 62.21 58.88 58.35 57.07 55.37 53.95 55.66 53.60 51.67 48.16 51.62 51.37 52.58 53.65 53.30 54.16 56.29 55.28 54.37 56.91 56.86 58.96 60.97 63.96
52.53 53.06 53.68 54.39 55.55 56.66 57.10 56.41 56.95 58.18 59.79 59.28 59.21 58.49 57.96 57.23 43.86 57.38 62.14 63.55 62.91 62.76 59.56 56.92 56.03 53.54 52.20 51.72 54.33 49.68 51.67 51.38 51.99 52.72 53.00 52.69 55.17 55.04 55.73 56.35 59.14 59.67 60.61 60.82 62.13
52.09 52.42 52.94 53.35 53.98 54.34 55.62 56.39 56.71 57.05 58.13 59.56 59.44 58.64 57.20 51.62 51.25 59.80 61.09 61.60 59.25 58.58 56.17 55.65 54.43 53.83 50.95 52.21 53.14 51.68 51.18 52.59 53.41 52.93 53.27 54.14 53.61 53.84 55.04 57.69 59.47 60.29 60.17 59.87 60.40
51.90 52.10 52.46 52.91 53.10 53.35 53.48 54.53 55.96 56.37 57.17 58.80 59.42 58.44 54.44 46.01 56.64 58.76 58.68 58.19 58.03 57.08 55.91 56.37 54.97 56.05 53.38 52.30 51.96 52.88 53.06 52.68 54.02 54.25 54.50 53.67 53.95 55.06 55.91 58.04 58.56 58.90 59.30 60.05 60.39
51.86 52.35 52.00 51.87 51.53 52.16 52.99 54.09 54.24 55.90 56.46 57.31 59.07 56.75 53.24 50.45 57.63 58.46 57.47 56.39 57.30 56.84 54.73 56.59 57.88 54.87 54.15 51.40 54.84 53.66 50.51 52.56 53.71 54.40 53.60 55.10 51.73 52.32 56.62 57.56 57.36 57.53 58.00 58.30 59.71
51.78 52.22 51.78 50.96 51.57 52.55 52.47 52.87 53.34 55.37 56.41 56.99 58.84 55.63 48.45 57.96 59.51 57.05 58.04 55.88 57.08 56.84 56.44 58.08 58.58 56.31 54.44 55.87 53.58 50.92 51.17 46.75 51.19 52.46 54.06 53.83 47.20 52.57 56.16 56.74 56.13 56.57 57.13 57.77 59.17
51.70 52.09 51.06 51.15 51.28 51.22 51.23 51.52 51.91 54.16 56.43 56.80 56.64 52.82 46.76 57.61 53.81 56.74 57.08 53.84 55.37 55.43 55.57 57.53 57.25 54.49 54.70 50.06 47.89 49.75 45.10 46.79 47.97 52.55 52.02 52.10 48.45 52.57 55.64 56.23 55.62 56.74 56.96 57.60 58.99
50.79 51.23 51.19 50.60 50.82 50.69 50.54 51.00 52.01 55.39 55.92 57.42 55.50 48.30 50.26 48.77 54.32 55.32 57.42 55.50 52.87 52.81 51.66 51.38 52.96 50.25 51.06 49.29 41.61 43.95 45.22 47.06 46.54 50.13 51.49 50.33 50.19 52.75 55.27 55.58 55.79 56.91 57.06 57.63 58.37
50.26 50.30 50.64 49.92 49.66 50.08 49.46 51.39 47.77 46.33 49.99 46.45 49.36 48.60 50.23 55.76 56.05 53.69 55.46 53.53 52.74 50.32 45.58 49.86 46.06 44.82 47.25 49.53 49.69 48.26 46.36 45.91 48.62 51.04 49.52 49.26 49.89 52.04 54.49 55.39 55.29 56.12 56.94 57.55 57.93
50.01 49.79 49.69 48.88 48.48 48.89 49.14 44.55 46.24 46.60 41.56 48.54 49.23 51.55 54.61 52.81 47.82 51.33 55.18 48.68 47.84 44.00 46.81 46.06 43.54 48.13 49.55 49.24 48.87 48.08 46.24 45.75 48.16 49.93 49.28 48.87 48.49 51.52 53.27 53.89 55.18 55.85 56.68 57.02 57.92
48.70 49.12 48.77 48.38 48.08 47.80 46.35 44.65 50.95 50.19 40.40 43.95 48.60 46.97 51.80 50.73 46.06 48.69 52.04 49.81 46.32 44.55 44.43 42.57 45.43 48.12 47.21 47.06 46.12 47.11 45.69 45.85 45.62 48.79 49.69 48.11 46.83 49.28 52.23 53.67 54.93 55.97 56.90 57.08 57.10
48.08 47.82 47.97 48.14 44.23 48.27 44.85 49.15 50.46 51.93 34.22 36.56 42.16 47.32 49.12 51.59 45.28 53.21 52.10 48.91 46.81 43.90 45.13 44.56 47.23 45.65 46.12 45.58 47.48 43.43 48.44 47.17 46.16 45.28 41.18 48.18 40.02 47.06 49.52 50.36 52.02 54.18 55.20 56.08 56.85
47.75 47.86 47.85 47.42 47.12 44.05 46.15 49.36 48.96 48.60 19.98 37.31 41.20 51.94 50.21 45.46 46.63 49.03 54.35 48.45 44.50 44.51 44.81 42.67 44.08 43.88 43.22 45.86 47.92 44.95 48.02 46.94 46.61 45.36 44.45 44.25 41.69 45.37 49.01 47.78 50.19 53.07 54.65 55.72 57.00
47.17 47.16 47.45 46.27 47.05 46.59 49.24 48.97 46.32 30.32 19.63 34.75 42.46 42.96 42.37 44.84 45.97 48.86 49.20 51.35 50.90 44.38 43.92 45.41 49.70 47.32 46.17 47.15 48.41 49.53 47.11 46.00 46.24 44.77 37.79 42.73 42.04 43.37 45.24 47.53 49.91 52.31 53.56 55.39 56.88
47.06 47.38 46.90 47.84 41.91 48.70 48.69 43.78 27.79 23.37 35.76 34.14 37.14 41.50 40.57 40.24 41.18 43.66 43.75 41.35 39.93 36.27 36.03 41.59 44.29 47.66 47.63 44.55 47.06 47.18 44.02 36.79 35.31 35.72 35.45 43.84 41.77 44.30 47.53 49.68 50.48 50.65 52.72 55.59 57.33
47.20 46.52 46.23 47.24 48.55 48.27 45.11 33.67 19.64 28.54 30.05 38.86 38.99 39.39 35.58 39.11 39.17 40.74 40.21 39.16 43.66 42.66 41.48 37.92 36.92 44.37 47.16 44.94 43.57 43.66 43.60 37.52 30.26 33.08 36.77 42.45 38.26 43.53 49.65 51.50 52.67 52.18 53.79 55.37 55.19
46.76 46.58 45.79 47.50 49.01 47.29 37.27 23.55 23.15 27.63 33.03 33.44 35.80 30.97 35.20 38.78 38.72 38.08 37.67 40.23 43.25 45.35 39.64 40.11 39.49 47.91 47.25 47.45 46.67 43.68 38.86 46.56 39.40 40.27 35.97 40.70 44.49 48.06 49.75 49.70 51.02 52.68 53.82 53.91 53.59
44.48 42.80 41.64 47.06 48.83 43.19 31.20 24.98 27.26 32.96 33.87 32.54 27.99 32.55 30.32 36.87 35.64 36.07 35.73 40.40 41.08 45.52 48.10 43.73 38.64 45.52 47.03 47.91 47.54 44.79 47.52 37.62 39.29 30.33 28.63 36.14 39.03 41.79 45.84 48.05 49.86 50.99 52.71 53.87 53.94
42.60 36.53 43.89 47.35 46.25 36.30 26.43 27.17 29.95 34.41 34.53 30.83 29.51 30.34 32.95 32.65 33.75 37.23 38.33 41.82 43.60 42.73 46.33 45.23 42.22 41.49 45.70 43.03 42.13 43.01 42.19 42.63 42.87 38.77 33.44 32.65 38.06 48.54 48.04 49.53 50.19 51.68 53.27 54.27 53.99
39.27 31.26 43.12 45.92 31.97 33.06 28.28 29.86 32.04 31.80 34.70 32.53 33.05 31.10 29.50 30.83 31.38 31.72 33.69 41.19 45.91 45.65 39.99 45.19 42.47 37.94 40.90 47.05 47.95 46.43 43.54 43.37 35.16 35.20 38.38 36.86 37.75 50.81 51.10 51.82 52.37 52.66 53.69 55.19 54.33
35.67 35.90 41.35 43.08 26.45 27.78 31.54 30.45 31.47 30.30 31.33 30.84 29.78 33.14 34.68 30.93 28.19 29.64 31.93 38.65 36.56 37.48 41.88 44.68 38.11 33.97 35.56 41.31 44.84 42.27 44.94 45.63 44.85 41.83 36.91 33.99 36.85 49.19 50.99 50.52 52.61 53.23 54.48 53.14 52.06
35.13 29.38 33.68 34.87 36.58 31.08 29.10 28.04 27.24 33.63 32.14 33.09 31.44 33.07 30.46 28.40 30.29 27.35 29.37 34.57 36.18 34.90 37.50 37.40 38.63 36.03 33.25 37.60 42.03 38.69 42.68 44.71 44.46 37.07 37.69 39.43 41.33 46.16 46.50 48.28 49.65 50.62 52.64 51.02 49.40
34.58 31.93 35.57 27.42 28.65 30.62 31.14 29.66 27.38 26.75 32.99 34.22 31.16 31.33 30.07 26.16 27.27 27.09 30.60 32.75 35.55 36.89 35.47 35.47 35.62 38.88 40.26 41.87 42.53 42.30 42.21 43.00 42.43 42.26 38.33 41.09 42.58 45.89 48.42 48.67 49.81 50.00 48.94 47.43 47.10
32.74 32.91 36.06 33.30 33.97 31.30 30.74 28.36 27.40 29.28 30.43 29.13 28.84 31.91 32.46 28.74 30.22 27.80 31.47 33.00 31.54 34.24 31.58 33.28 31.99 38.77 35.49 40.70 40.99 39.65 42.19 42.97 43.61 44.61 44.21 43.62 43.28 50.18 50.90 51.91 50.27 48.94 47.30 45.85 46.07
38.79 40.54 36.61 32.59 32.27 30.32 30.28 29.71 29.36 32.20 32.88 33.99 32.65 31.18 30.36 32.85 36.49 37.18 37.62 37.01 35.54 33.42 32.01 31.78 29.19 29.61 30.15 38.01 38.56 32.54 38.52 42.18 43.40 45.56 45.30 41.58 47.18 50.38 49.45 49.40 49.15 48.08 46.33 45.59 45.78
MSLP
1017.75 1017.45 1017.29 1017.14 1017.07 1016.94 1016.78 1016.79 1016.87 1016.87 1016.89 1016.84 1016.80 1016.73 1016.76 1016.61 1015.98 1014.95 1013.65 1012.92 1013.03 1013.16 1013.07 1012.16 1011.51 1010.98 1010.72 1009.86 1009.83 1009.43 1007.92 1006.21 1005.66 1005.79 1005.30 1006.26 1006.13 1006.39 1006.41 1005.89 1006.11 1006.10 1006.02 1006.64 1007.00
1017.76 1017.52 1017.22 1016.83 1016.91 1016.86 1016.70 1016.56 1016.56 1016.62 1016.73 1016.63 1016.71 1016.60 1016.67 1016.56 1015.50 1013.88 1012.75 1012.99 1013.15 1013.26 1012.84 1011.83 1010.93 1010.61 1009.84 1009.47 1009.26 1008.60 1007.21 1006.04 1006.03 1006.18 1005.94 1006.30 1006.32 1006.19 1006.46 1006.05 1006.00 1006.17 1006.45 1006.98 1007.16
1017.71 1017.59 1017.25 1016.85 1016.63 1016.67 1016.54 1016.40 1016.26 1016.36 1016.39 1016.47 1016.57 1016.59 1016.52 1016.20 1014.74 1012.07 1012.90 1013.00 1012.56 1012.77 1012.65 1011.87 1011.15 1010.44 1009.52 1009.05 1008.67 1007.87 1006.81 1006.32 1006.85 1006.78 1006.63 1006.23 1006.19 1006.28 1005.94 1005.61 1005.80 1005.69 1006.05 1006.47 1006.72
1017.59 1017.36 1017.17 1016.96 1016.73 1016.60 1016.53 1016.38 1016.10 1016.20 1016.12 1016.18 1016.31 1016.49 1016.52 1015.78 1013.60 1011.86 1012.76 1012.84 1012.63 1011.94 1011.99 1011.66 1010.87 1010.05 1009.20 1008.38 1008.08 1007.81 1007.24 1006.83 1006.84 1006.80 1006.92 1006.42 1006.10 1006.01 1005.73 1005.54 1005.92 1005.94 1006.08 1006.22 1006.16
1017.29 1017.23 1017.09 1016.95 1016.68 1016.58 1016.42 1016.21 1016.11 1016.05 1015.92 1015.91 1016.04 1016.33 1016.48 1014.86 1012.55 1012.08 1012.49 1012.62 1012.17 1012.07 1011.47 1011.23 1010.48 1009.75 1008.71 1008.16 1007.93 1007.77 1006.93 1006.87 1007.13 1006.98 1006.85 1006.72 1006.33 1005.97 1005.25 1005.43 1005.63 1005.62 1005.92 1005.99 1005.87
1017.01 1017.09 1016.95 1016.76 1016.57 1016.54 1016.35 1016.11 1016.05 1015.89 1015.70 1015.58 1015.68 1016.09 1015.53 1013.34 1011.88 1012.05 1012.04 1012.23 1012.09 1011.88 1011.44 1011.17 1010.53 1009.83 1009.08 1008.30 1007.97 1007.17 1007.15 1006.75 1006.75 1006.76 1006.69 1006.73 1006.04 1006.05 1004.66 1005.12 1005.21 1005.39 1005.34 1005.41 1005.49
1016.69 1016.68 1016.79 1016.70 1016.56 1016.43 1016.30 1016.12 1015.88 1015.63 1015.56 1015.40 1015.41 1015.53 1014.23 1011.96 1011.86 1011.85 1012.23 1011.93 1012.12 1011.93 1011.43 1011.09 1011.06 1010.57 1009.42 1008.89 1008.27 1007.98 1007.33 1006.78 1006.43 1006.65 1006.20 1006.31 1005.57 1004.93 1004.26 1004.63 1004.54 1004.77 1004.83 1005.04 1005.15
1016.36 1016.40 1016.48 1016.43 1016.37 1016.24 1016.16 1016.08 1015.69 1015.32 1015.25 1015.14 1014.92 1015.30 1013.00 1011.64 1011.85 1012.07 1011.96 1012.18 1012.29 1012.22 1011.91 1011.47 1011.16 1010.73 1009.89 1008.99 1008.63 1007.99 1007.21 1005.71 1005.12 1005.45 1005.81 1006.22 1003.77 1003.49 1003.44 1003.83 1004.07 1004.21 1004.37 1004.79 1005.04
1015.91 1016.02 1016.16 1016.26 1016.16 1016.07 1016.04 1015.81 1015.41 1015.07 1014.94 1014.93 1014.88 1014.71 1012.71 1011.50 1011.57 1011.55 1011.59 1011.33 1011.75 1011.85 1011.76 1011.46 1010.99 1010.12 1009.74 1009.17 1008.09 1007.13 1005.66 1004.99 1004.68 1004.85 1004.99 1005.12 1003.26 1002.88 1002.77 1003.26 1003.38 1003.67 1003.94 1004.35 1004.88
1015.61 1015.70 1015.86 1015.99 1015.94 1015.89 1015.67 1015.33 1014.80 1014.60 1014.44 1014.27 1014.39 1014.43 1012.39 1010.87 1010.80 1010.85 1010.86 1011.03 1010.99 1011.37 1011.37 1011.18 1010.52 1009.41 1008.87 1008.02 1005.84 1005.89 1005.71 1005.66 1004.56 1004.31 1004.92 1003.93 1003.22 1002.77 1002.93 1002.92 1002.90 1002.82 1003.35 1003.99 1004.51
1015.45 1015.47 1015.63 1015.78 1015.82 1015.75 1015.34 1014.45 1014.54 1014.10 1013.38 1011.48 1011.15 1010.75 1009.64 1009.70 1010.28 1009.77 1009.82 1010.36 1010.55 1010.24 1009.62 1009.84 1009.64 1007.07 1006.34 1006.80 1006.86 1006.16 1005.57 1005.16 1004.67 1004.57 1004.80 1004.02 1002.88 1002.31 1002.21 1001.90 1002.26 1002.33 1002.61 1003.25 1004.00
1015.16 1015.26 1015.47 1015.67 1015.73 1015.69 1015.45 1014.38 1013.69 1014.60 1012.69 1011.16 1010.36 1009.90 1009.61 1009.57 1009.58 1009.29 1009.73 1009.54 1009.46 1008.11 1009.29 1009.02 1006.90 1005.63 1006.82 1006.67 1006.82 1006.73 1005.92 1005.09 1005.09 1005.10 1005.49 1004.15 1002.44 1001.90 1001.46 1000.99 1001.29 1001.45 1001.63 1002.26 1003.38
1014.91 1015.14 1015.39 1015.62 1015.67 1015.52 1015.07 1014.67 1014.57 1014.24 1012.84 1009.88 1008.95 1008.67 1008.92 1009.49 1009.14 1008.61 1009.07 1008.39 1008.01 1008.00 1007.10 1006.29 1004.05 1006.68 1006.17 1006.14 1006.18 1005.79 1005.25 1005.13 1005.03 1005.22 1005.42 1004.67 1001.55 1000.53 1000.29 1000.19 1000.35 1000.73 1001.08 1001.34 1002.19
1014.74 1015.05 1015.30 1015.51 1015.83 1015.09 1014.71 1015.09 1014.88 1014.35 1012.42 1008.99 1007.51 1006.52 1007.72 1008.25 1007.67 1008.10 1008.26 1007.82 1007.42 1006.58 1006.85 1006.06 1004.32 1005.11 1005.12 1005.02 1005.50 1004.82 1005.32 1005.60 1005.49 1005.65 1004.33 1004.18 1000.29 998.60 998.28 997.96 998.19 999.30 1000.10 1000.42 1001.39
1014.64 1014.89 1015.10 1015.31 1014.83 1014.75 1014.91 1014.89 1014.60 1014.10 1011.15 1006.53 1005.30 1004.91 1005.52 1006.61 1004.63 1006.08 1007.28 1007.68 1006.38 1006.31 1006.37 1003.59 1004.05 1004.17 1004.07 1003.58 1004.91 1003.73 1005.46 1005.17 1005.52 1005.35 1005.07 1003.62 1002.43 996.20 998.40 997.75 998.04 998.99 999.45 1000.20 1000.94
1014.45 1014.69 1015.02 1015.13 1015.03 1014.77 1014.89 1014.71 1014.45 1013.45 1008.62 1005.58 1004.61 1004.61 1005.36 1005.75 1005.44 1005.23 1005.82 1006.74 1006.35 1006.78 1006.13 1003.75 1003.54 1003.75 1002.88 1003.59 1004.35 1004.97 1005.25 1005.32 1005.30 1005.16 1003.92 1000.84 1002.41 994.66 996.97 996.80 997.55 998.18 998.66 999.43 1000.28
1014.27 1014.52 1014.82 1014.75 1014.54 1014.88 1014.89 1014.43 1013.89 1010.61 1007.72 1006.14 1005.06 1004.93 1004.96 1005.24 1005.48 1005.18 1005.37 1005.56 1005.09 1005.32 1005.32 1003.58 1003.04 1002.91 1003.20 1002.96 1003.52 1004.24 1004.57 1004.21 1004.36 1003.42 1000.94 1001.39 1000.94 994.68 996.06 996.14 996.57 997.44 998.45 999.07 999.97
1013.97 1014.33 1014.51 1014.65 1014.89 1015.08 1014.80 1014.37 1012.28 1009.86 1008.60 1006.90 1006.13 1005.47 1005.14 1005.19 1005.16 1005.27 1004.67 1004.31 1004.56 1003.59 1002.55 1002.07 1001.56 1001.58 1001.06 1000.85 1000.98 1002.35 1003.07 1002.69 1002.33 1001.50 999.97 1000.94 999.41 993.96 995.94 996.32 996.58 997.31 997.66 998.69 1000.10
1013.86 1014.15 1014.24 1014.45 1014.65 1015.13 1015.01 1013.74 1011.81 1010.68 1009.16 1008.17 1007.06 1007.02 1005.58 1005.07 1005.06 1005.26 1004.41 1003.30 1003.01 1002.76 1001.47 999.86 999.10 999.47 1000.12 1000.48 1001.93 1000.56 1002.01 1001.27 1002.49 1002.03 1001.07 999.27 997.27 995.59 995.98 996.01 996.92 997.07 997.64 998.50 999.91
1013.58 1013.62 1013.26 1013.86 1014.44 1014.91 1014.92 1013.14 1012.05 1010.84 1009.91 1009.59 1008.91 1007.80 1006.42 1005.14 1005.46 1004.99 1004.28 1003.03 1002.23 1001.69 1001.46 999.76 998.68 998.72 999.17 1000.54 1000.58 1000.69 1000.99 1002.45 1002.55 1002.34 1001.35 999.48 997.57 993.64 994.94 994.62 995.70 996.65 997.22 998.11 999.62
1013.45 1013.49 1012.74 1013.60 1014.35 1014.52 1013.20 1012.07 1011.39 1010.90 1010.42 1010.08 1009.19 1008.54 1007.41 1006.66 1006.01 1004.25 1002.72 1001.97 1001.88 1001.39 1001.32 1000.44 1000.05 998.07 998.28 998.12 998.44 999.17 999.58 1000.39 1001.57 1002.00 1001.04 999.65 997.19 994.04 994.95 994.80 995.14 995.91 996.64 997.54 998.90
1013.44 1013.14 1013.12 1013.40 1014.00 1013.25 1012.39 1012.00 1011.81 1010.85 1010.45 1010.08 1009.56 1008.99 1008.75 1007.98 1007.09 1005.88 1003.89 1001.66 1001.07 1001.47 1001.15 1000.40 1000.05 998.47 997.74 996.98 997.96 998.23 998.40 999.37 1000.61 1001.32 1000.38 998.97 996.21 994.94 994.55 993.95 994.22 994.96 995.65 996.92 998.61
1012.99 1012.91 1013.58 1013.01 1012.45 1012.15 1012.06 1011.91 1011.60 1011.06 1010.26 1009.73 1009.41 1008.59 1008.54 1008.28 1007.98 1007.01 1005.77 1004.74 1004.53 1003.83 1002.10 1001.46 1000.62 999.69 998.34 998.19 997.20 996.90 997.29 997.95 999.16 1000.11 999.25 998.65 995.94 995.24 994.42 994.69 994.75 994.83 995.29 997.07 998.72
1012.75 1012.57 1012.97 1012.56 1011.46 1011.25 1011.22 1011.16 1011.15 1010.48 1009.82 1009.45 1008.94 1009.08 1008.51 1008.04 1008.27 1007.33 1006.16 1005.22 1004.99 1005.28 1004.87 1004.52 1000.94 999.28 997.04 995.92 996.43 997.24 996.63 996.74 997.40 998.30 997.41 996.88 994.56 992.84 993.69 993.95 994.84 995.35 995.78 997.24 998.74
1011.83 1011.06 1010.48 1010.72 1010.94 1010.76 1010.54 1010.29 1010.11 1009.82 1009.16 1008.70 1008.08 1008.06 1007.96 1007.41 1007.42 1007.30 1006.55 1004.59 1004.72 1004.92 1005.45 1005.14 1001.62 1000.04 997.86 996.99 996.22 995.65 995.48 995.67 995.45 995.74 995.78 994.29 993.66 990.27 992.40 993.59 994.31 995.12 996.33 997.45 998.61
1010.82 1010.59 1009.97 1009.23 1009.05 1009.41 1009.44 1009.19 1009.19 1008.55 1008.50 1008.09 1007.74 1007.27 1006.98 1006.42 1006.08 1006.05 1005.56 1004.74 1004.19 1004.62 1005.24 1005.43 1003.09 1000.65 998.50 996.96 996.33 994.69 993.91 994.23 994.38 993.77 993.61 993.32 992.37 989.61 992.20 992.70 993.74 994.85 996.01 997.08 998.07
1010.06 1009.79 1009.67 1008.54 1008.38 1008.12 1007.65 1007.76 1007.60 1007.62 1007.42 1007.13 1006.79 1006.55 1006.01 1004.83 1004.94 1005.06 1004.76 1004.73 1004.48 1004.24 1004.65 1005.32 1004.72 1002.27 998.51 997.23 996.21 994.87 994.11 992.83 992.34 992.46 992.28 991.39 989.76 989.74 991.18 991.53 992.93 994.08 995.19 996.13 997.16
Wind_Speed
11 11 11 7 6 8 8 8 8 8 9 8 7 6 7 10 13 12 16 7 4 3 6 9 8 7 7 7 7 5 8 11 13 10 4 5 9 4 3 6 4 3 3 4 2
12 12 13 6 6 7 7 8 9 9 10 8 8 5 6 8 12 16 11 6 8 2 14 12 11 9 10 9 7 12 12 15 6 9 7 6 7 3 7 7 7 8 5 3 5
11 11 12 11 6 7 6 6 9 10 9 9 8 6 4 9 12 6 5 1 5 12 16 12 12 12 15 10 12 12 17 13 9 12 9 12 9 6 10 11 10 8 5 7 10
10 10 10 11 10 9 7 8 6 10 10 9 8 6 3 5 8 7 7 5 5 4 9 11 13 16 14 16 16 13 16 13 11 9 11 14 13 12 13 13 7 9 11 12 13
8 9 9 10 10 10 9 9 7 7 9 9 9 9 6 10 13 7 2 1 5 1 2 11 14 16 17 12 16 18 17 11 14 14 15 14 17 18 21 14 15 13 12 13 15
7 9 9 9 9 10 11 10 9 7 8 9 11 11 10 22 1 11 13 12 10 7 5 7 7 12 13 16 15 4 17 17 14 14 15 15 17 11 21 10 10 10 12 13 16
8 8 8 7 10 10 11 10 9 8 8 9 12 13 16 20 4 4 3 7 5 8 9 7 9 10 4 14 14 14 19 18 15 15 16 15 22 23 25 18 15 12 11 11 14
9 8 5 5 8 8 8 10 10 9 7 6 12 9 9 3 18 19 10 4 3 3 6 8 7 11 15 8 9 12 18 20 18 20 19 12 19 18 17 14 15 10 9 7 10
10 8 4 4 4 7 9 11 13 11 8 6 6 4 7 5 14 14 19 15 8 7 5 7 8 13 10 16 16 16 16 20 17 15 13 20 18 20 17 15 16 11 7 6 8
7 8 7 3 2 5 11 14 9 7 8 5 2 4 9 5 6 11 20 17 14 14 10 10 10 14 16 16 20 20 17 18 18 5 14 20 20 16 10 14 15 12 8 8 10
7 6 6 1 3 6 8 3 6 6 12 13 9 12 5 13 6 14 15 19 16 14 23 15 14 27 30 25 22 22 15 21 18 12 12 19 21 17 18 20 19 19 15 11 12
8 5 4 3 2 4 6 4 4 7 9 23 24 22 19 11 7 10 15 16 20 27 21 21 26 29 25 24 22 23 23 24 19 15 14 20 26 24 21 24 21 21 18 16 13
3 5 3 3 2 4 5 8 11 7 7 14 22 28 21 12 7 14 19 15 20 22 30 29 33 24 24 25 24 28 28 24 22 13 14 17 29 29 26 29 24 22 22 20 17
4 2 3 5 4 1 5 3 9 8 6 13 19 22 29 24 17 20 19 11 12 22 24 27 34 28 25 28 27 28 25 24 21 17 18 13 24 27 19 19 18 19 21 22 18
5 5 5 7 1 5 4 6 9 4 7 10 27 5 19 30 14 30 24 20 21 15 20 26 21 29 31 29 25 28 23 22 20 21 20 26 18 27 20 23 21 15 18 18 19
4 5 6 5 5 5 5 7 4 8 13 6 7 18 21 25 31 11 29 29 21 17 17 33 21 22 35 31 23 17 17 13 18 15 20 31 20 30 23 24 18 17 20 20 19
8 7 8 3 3 4 5 4 7 13 1 6 10 14 25 22 25 32 26 28 19 19 16 30 30 25 20 23 28 24 17 13 14 16 22 12 19 30 6 14 14 22 19 16 17
6 5 5 5 5 4 3 6 14 5 24 4 6 19 19 23 24 26 25 26 30 26 21 25 24 33 29 35 26 32 28 15 23 20 23 20 17 24 15 17 19 21 17 16 18
6 4 3 6 8 5 5 10 8 15 11 21 10 7 13 22 16 22 27 29 32 33 27 25 35 21 30 32 26 30 27 33 24 18 11 15 25 33 28 19 10 15 15 18 21
4 5 7 8 9 8 6 10 9 19 19 11 10 8 5 19 20 19 21 18 33 37 34 28 25 29 23 22 32 31 23 21 15 10 23 22 31 27 18 21 18 20 20 19 19
3 3 3 11 8 7 11 11 15 18 16 11 17 9 11 13 7 21 17 20 31 27 33 34 26 24 24 28 31 24 27 22 18 16 14 20 20 33 26 22 18 22 22 19 20
2 5 7 12 7 5 13 6 10 13 12 18 20 21 20 19 14 10 6 18 20 33 30 35 16 28 29 24 29 32 30 29 14 16 21 22 23 17 6 13 19 23 23 19 18
3 3 4 11 9 11 6 6 16 15 15 11 15 18 15 13 6 9 9 4 20 21 23 26 17 22 20 26 18 25 28 29 28 7 20 19 23 20 24 12 12 17 17 14 16
3 5 4 5 10 15 14 15 14 13 19 20 22 19 21 20 18 12 20 15 11 20 27 17 20 23 25 25 24 21 31 31 29 19 22 23 31 30 10 15 14 14 14 16 17
5 6 7 6 11 18 14 7 13 12 15 14 11 20 20 17 13 17 23 29 24 21 10 10 10 26 32 31 29 33 31 36 35 34 30 32 38 42 27 19 15 14 13 16 19
4 4 5 11 12 19 20 18 21 22 18 13 18 20 18 18 19 17 21 17 19 10 12 5 12 22 25 32 34 36 31 32 38 38 36 37 37 41 23 23 19 15 17 19 20
2 5 4 8 16 17 16 21 21 22 19 24 22 20 19 25 21 20 18 18 19 18 12 12 7 9 22 31 29 25 30 36 36 33 37 35 40 34 28 18 21 19 20 22 21
Wind_Direction
341 341 327 306 318 343 289 264 265 266 264 265 272 288 308 317 300 280 270 264 262 179 300 290 254 226 218 206 215 236 242 244 235 234 213 160 212 182 313 259 208 198 259 67 121
330 334 333 311 320 311 327 308 264 260 262 259 262 273 305 317 296 285 287 248 245 213 262 255 248 214 222 221 202 217 231 243 255 250 255 194 237 185 239 194 214 217 196 196 191
322 326 336 339 326 314 320 332 325 265 254 253 249 252 283 300 281 257 73 7 280 203 242 253 251 233 236 220 209 214 243 238 239 248 268 262 237 226 249 241 239 224 224 222 231
311 325 332 335 340 335 320 306 324 323 261 243 227 220 250 242 252 110 94 64 67 156 201 226 220 217 228 223 224 247 234 253 240 244 245 252 276 254 257 266 255 263 276 276 236
303 312 317 325 333 336 332 317 303 299 305 245 211 182 211 220 236 144 267 238 324 57 222 223 231 224 234 235 237 236 249 228 245 247 248 263 259 272 269 269 264 272 264 256 250
292 297 307 315 324 326 330 328 305 299 316 269 205 177 227 243 187 250 268 277 270 261 273 238 242 247 281 254 236 252 251 252 235 235 235 244 252 252 261 248 262 261 260 248 247
272 286 296 314 321 319 317 315 308 289 295 313 208 196 228 235 162 195 262 268 272 262 252 240 273 241 253 258 251 263 257 249 229 235 238 244 252 244 255 264 269 265 257 257 252
269 271 275 311 317 316 323 316 312 283 271 303 206 206 237 251 241 250 235 275 211 239 254 249 228 252 254 274 243 241 239 253 241 230 224 226 255 239 243 241 233 249 267 258 246
267 271 247 278 328 334 323 308 295 281 240 272 210 199 247 156 217 227 239 230 215 241 246 257 234 228 218 237 246 224 252 232 252 225 233 220 248 244 243 220 234 222 237 253 248
260 267 258 259 339 352 321 293 290 265 216 228 289 147 238 209 198 231 218 221 222 232 234 227 227 221 221 222 229 232 228 250 247 193 231 239 243 255 202 216 220 230 225 230 234
254 254 242 170 9 11 325 281 207 204 221 210 185 227 113 215 184 218 196 199 203 214 218 194 214 223 221 221 246 259 254 252 252 249 285 259 260 254 244 234 230 243 240 229 227
241 259 197 152 34 355 304 278 330 14 284 224 248 224 243 177 178 185 180 184 192 211 208 214 226 229 234 237 231 243 247 248 256 264 285 274 271 267 255 250 246 242 239 233 221
233 236 168 160 11 267 275 278 337 332 267 251 226 233 208 200 204 184 193 200 198 211 208 215 231 226 234 228 230 230 235 244 253 248 248 280 279 259 251 249 242 246 244 246 222
203 174 141 145 233 206 239 16 326 305 265 248 218 232 216 218 238 215 204 191 207 218 217 228 235 234 223 230 221 238 231 248 257 254 253 235 273 273 267 261 245 225 238 233 209
206 190 165 206 106 216 50 313 312 223 246 198 209 175 203 200 215 208 200 216 228 204 198 224 225 227 231 225 224 243 246 246 237 244 257 250 263 265 268 259 241 229 231 220 212
212 196 170 183 235 260 306 308 270 211 227 228 185 199 185 202 217 215 202 215 218 241 222 241 230 220 229 232 230 237 234 238 237 237 242 242 243 270 256 258 239 244 239 220 207
222 207 212 189 258 195 235 229 221 233 210 211 194 202 206 198 215 217 190 199 199 187 195 235 238 237 228 232 224 213 209 217 217 214 239 235 223 248 237 295 255 234 233 221 203
216 212 209 214 184 181 251 206 226 227 247 47 299 210 215 217 212 211 207 203 208 199 204 224 222 215 211 221 211 213 213 220 223 230 242 224 243 244 233 258 263 250 238 211 197
198 204 202 188 199 193 207 212 233 244 270 252 262 318 225 215 232 207 224 223 204 219 215 222 232 226 216 218 221 219 212 225 250 277 281 260 234 248 257 248 243 234 228 196 197
186 211 200 183 177 182 212 233 234 237 260 309 286 209 272 224 204 204 198 219 229 217 228 238 250 220 213 220 221 228 212 219 225 215 234 243 254 265 249 253 214 226 218 209 195
169 217 149 156 165 198 231 223 233 246 259 243 264 284 298 287 281 217 201 218 207 224 221 235 241 250 229 204 210 209 222 212 219 219 234 250 249 253 255 251 217 221 217 205 192
178 214 142 159 189 207 233 226 263 260 255 253 263 264 266 284 292 274 299 245 206 213 215 224 234 246 235 219 221 221 211 211 211 207 221 231 255 244 305 264 230 225 218 199 192
205 209 188 190 220 222 218 240 249 253 252 243 248 259 258 273 282 327 348 318 324 350 227 219 218 240 241 246 219 220 216 219 212 225 218 213 243 239 249 228 236 228 212 197 187
179 196 172 226 238 241 232 233 235 242 251 249 257 267 272 270 263 281 290 289 296 306 317 309 238 214 231 220 222 234 227 219 213 218 222 215 239 240 238 238 226 222 199 189 186
192 229 194 194 224 225 231 235 227 233 235 241 244 243 253 266 260 253 262 272 276 273 295 313 241 219 241 241 248 220 221 224 225 218 221 227 231 248 232 226 220 202 184 184 186
191 204 224 251 230 220 232 231 238 245 242 246 249 262 262 264 263 264 266 274 276 260 279 306 299 234 240 243 238 245 239 225 229 228 230 235 243 249 240 240 214 200 190 194 193
180 244 264 245 236 244 238 232 243 250 249 246 254 261 262 255 276 276 277 280 269 279 261 256 250 306 235 237 245 247 237 240 232 231 231 233 234 245 238 223 213 194 195 198 194